timestamp,wind_dir_avg,wind_spd_avg,wind_spd_max_dir,wind_spd_gust,battery_voltage,lat,long
2023-11-29 00:04:01+00:00,232.0,9.38,236.0,13.48,12.09,47.59359,-54.27349
2023-11-29 00:14:01+00:00,233.0,8.93,229.0,10.41,12.09,47.59359,-54.27349
2023-11-29 00:24:01+00:00,240.0,11.65,243.0,14.13,12.09,47.59359,-54.27349
2023-11-29 00:34:01+00:00,242.0,10.33,250.0,12.86,12.09,47.59359,-54.27349
2023-11-29 00:44:01+00:00,237.0,9.88,239.0,11.71,12.09,47.59359,-54.27349
2023-11-29 00:54:01+00:00,234.0,9.59,241.0,12.15,12.09,47.59359,-54.27349
2023-11-29 01:04:01+00:00,248.0,10.93,244.0,14.0,12.09,47.59359,-54.27349
2023-11-29 01:14:00+00:00,240.0,12.12,237.0,13.9,12.09,47.59359,-54.27349
2023-11-29 01:24:00+00:00,242.0,11.85,244.0,14.02,12.09,47.59359,-54.27349
2023-11-29 01:34:00+00:00,239.0,13.38,236.0,16.07,12.09,47.59359,-54.27349
2023-11-29 01:44:00+00:00,244.0,12.59,242.0,14.73,12.09,47.59359,-54.27349
2023-11-29 01:54:00+00:00,238.0,11.66,248.0,13.85,12.09,47.59359,-54.27349
2023-11-29 02:04:00+00:00,243.0,12.74,249.0,14.9,12.09,47.59359,-54.27349
2023-11-29 02:14:01+00:00,234.0,11.53,240.0,13.05,12.09,47.59359,-54.27349
2023-11-29 02:24:01+00:00,233.0,11.37,236.0,13.59,12.09,47.59359,-54.27349
2023-11-29 02:34:01+00:00,239.0,12.92,235.0,14.48,12.09,47.59359,-54.27349
2023-11-29 02:44:01+00:00,234.0,10.63,235.0,12.71,12.09,47.59359,-54.27349
2023-11-29 02:54:01+00:00,237.0,13.46,241.0,15.66,12.09,47.59359,-54.27349
2023-11-29 03:04:01+00:00,239.0,12.77,242.0,14.2,12.09,47.59359,-54.27349
2023-11-29 03:14:00+00:00,239.0,11.45,239.0,12.82,12.09,47.59359,-54.27349
2023-11-29 03:24:00+00:00,232.0,9.97,236.0,12.54,12.09,47.59359,-54.27349
2023-11-29 03:34:00+00:00,243.0,11.43,250.0,13.81,12.09,47.59359,-54.27349
2023-11-29 03:44:00+00:00,239.0,11.19,243.0,13.59,12.09,47.59359,-54.27349
2023-11-29 03:54:00+00:00,238.0,11.08,237.0,13.73,12.09,47.59359,-54.27349
2023-11-29 04:04:00+00:00,236.0,10.07,235.0,12.1,12.09,47.59359,-54.27349
2023-11-29 04:14:00+00:00,235.0,9.31,243.0,11.89,12.09,47.59359,-54.27349
2023-11-29 04:24:00+00:00,230.0,8.69,231.0,10.21,12.09,47.59359,-54.27349
2023-11-29 04:34:00+00:00,227.0,9.9,222.0,11.25,12.09,47.59359,-54.27349
2023-11-29 04:44:00+00:00,229.0,9.57,225.0,12.04,12.09,47.59359,-54.27349
2023-11-29 04:54:00+00:00,222.0,10.83,228.0,14.22,12.09,47.59359,-54.27349
2023-11-29 05:04:00+00:00,225.0,10.55,231.0,13.44,12.09,47.59359,-54.27349
2023-11-29 05:14:01+00:00,225.0,10.14,218.0,12.2,12.09,47.59359,-54.27349
2023-11-29 05:24:01+00:00,226.0,10.56,228.0,12.53,12.09,47.59359,-54.27349
2023-11-29 05:34:01+00:00,224.0,10.66,222.0,12.48,12.09,47.59359,-54.27349
2023-11-29 05:44:01+00:00,228.0,10.44,234.0,13.86,12.09,47.59359,-54.27349
2023-11-29 05:54:01+00:00,230.0,9.73,239.0,12.89,12.09,47.59359,-54.27349
2023-11-29 06:04:01+00:00,219.0,9.83,218.0,10.99,12.09,47.59359,-54.27349
2023-11-29 06:14:00+00:00,216.0,9.77,216.0,11.43,12.09,47.59359,-54.27349
2023-11-29 06:24:00+00:00,215.0,9.08,219.0,11.52,12.09,47.59359,-54.27349
2023-11-29 06:34:00+00:00,214.0,8.44,226.0,9.73,12.09,47.59359,-54.27349
2023-11-29 06:44:00+00:00,207.0,9.83,205.0,11.09,12.09,47.59359,-54.27349
2023-11-29 06:54:00+00:00,201.0,9.96,209.0,11.0,12.09,47.59359,-54.27349
2023-11-29 07:04:00+00:00,200.0,9.07,209.0,10.71,12.09,47.59359,-54.27349
2023-11-29 07:14:01+00:00,211.0,8.81,213.0,10.07,12.09,47.59359,-54.27349
2023-11-29 07:24:01+00:00,203.0,9.28,212.0,10.47,12.09,47.59359,-54.27349
2023-11-29 07:34:01+00:00,201.0,9.55,197.0,10.6,12.09,47.59359,-54.27349
2023-11-29 07:44:01+00:00,207.0,9.02,210.0,10.7,12.09,47.59359,-54.27349
2023-11-29 07:54:01+00:00,201.0,9.47,212.0,10.22,12.09,47.59359,-54.27349
2023-11-29 08:04:01+00:00,202.0,9.71,209.0,11.26,12.09,47.59359,-54.27349
2023-11-29 08:14:01+00:00,208.0,7.5,219.0,8.86,12.09,47.59359,-54.27349
2023-11-29 08:24:01+00:00,214.0,8.28,220.0,9.15,12.09,47.59359,-54.27349
2023-11-29 08:34:01+00:00,179.0,5.12,177.0,5.99,12.09,47.59359,-54.27349
2023-11-29 08:44:01+00:00,184.0,5.39,184.0,6.08,12.09,47.59359,-54.27349
2023-11-29 08:54:01+00:00,180.0,4.54,180.0,5.11,12.09,47.59359,-54.27349
2023-11-29 09:04:01+00:00,176.0,4.8,177.0,5.51,12.09,47.59359,-54.27349
2023-11-29 09:14:00+00:00,187.0,6.69,208.0,8.26,12.09,47.59359,-54.27349
2023-11-29 09:24:00+00:00,186.0,6.38,185.0,6.94,12.09,47.59359,-54.27349
2023-11-29 09:34:00+00:00,183.0,6.17,191.0,7.21,12.09,47.59359,-54.27349
2023-11-29 09:44:00+00:00,178.0,5.97,177.0,6.93,12.09,47.59359,-54.27349
2023-11-29 09:54:00+00:00,154.0,6.45,141.0,7.25,12.09,47.59359,-54.27349
2023-11-29 10:04:00+00:00,155.0,7.1,151.0,7.93,12.09,47.59359,-54.27349
2023-11-29 10:14:00+00:00,151.0,6.39,144.0,7.49,12.09,47.59359,-54.27349
2023-11-29 10:24:00+00:00,141.0,6.28,130.0,7.6,12.09,47.59359,-54.27349
2023-11-29 10:34:00+00:00,151.0,7.26,138.0,8.24,12.09,47.59359,-54.27349
2023-11-29 10:44:00+00:00,169.0,6.71,148.0,8.6,12.09,47.59359,-54.27349
2023-11-29 10:54:00+00:00,171.0,6.29,173.0,8.73,12.09,47.59359,-54.27349
2023-11-29 11:04:00+00:00,169.0,5.39,158.0,6.81,12.09,47.59359,-54.27349
2023-11-29 11:14:00+00:00,177.0,8.07,176.0,9.41,12.01,47.59359,-54.27349
2023-11-29 11:24:00+00:00,174.0,5.97,155.0,6.6,12.01,47.59359,-54.27349
2023-11-29 11:34:00+00:00,187.0,5.81,219.0,8.01,12.01,47.59359,-54.27349
2023-11-29 11:44:00+00:00,206.0,6.07,228.0,7.94,12.01,47.59359,-54.27349
2023-11-29 11:54:00+00:00,213.0,7.33,215.0,8.81,12.01,47.59359,-54.27349
2023-11-29 12:04:00+00:00,217.0,6.75,217.0,7.87,12.01,47.59359,-54.27349
2023-11-29 12:14:00+00:00,203.0,6.77,208.0,7.67,12.09,47.59359,-54.27349
2023-11-29 12:24:00+00:00,189.0,6.53,186.0,7.02,12.09,47.59359,-54.27349
2023-11-29 12:34:00+00:00,183.0,3.84,185.0,4.45,12.09,47.59359,-54.27349
2023-11-29 12:44:00+00:00,172.0,4.36,168.0,5.3,12.09,47.59359,-54.27349
2023-11-29 12:54:00+00:00,151.0,4.61,146.0,5.03,12.09,47.59359,-54.27349
2023-11-29 13:04:00+00:00,143.0,7.03,145.0,7.46,12.09,47.59359,-54.27349
2023-11-29 13:14:00+00:00,155.0,4.64,164.0,5.41,12.09,47.59359,-54.27349
2023-11-29 13:24:00+00:00,134.0,4.86,134.0,5.73,12.09,47.59359,-54.27349
2023-11-29 13:34:00+00:00,144.0,3.85,147.0,5.0,12.09,47.59359,-54.27349
2023-11-29 13:44:00+00:00,135.0,2.55,138.0,3.1,12.09,47.59359,-54.27349
2023-11-29 13:54:00+00:00,144.0,2.47,147.0,2.92,12.09,47.59359,-54.27349
2023-11-29 14:04:00+00:00,115.0,1.31,129.0,1.69,12.09,47.59359,-54.27349
2023-11-29 14:14:00+00:00,145.0,4.49,152.0,5.88,12.09,47.59359,-54.27349
2023-11-29 14:24:00+00:00,153.0,4.68,152.0,5.61,12.09,47.59359,-54.27349
2023-11-29 14:34:00+00:00,128.0,4.46,131.0,6.31,12.09,47.59359,-54.27349
2023-11-29 14:44:00+00:00,131.0,1.16,144.0,1.5,12.09,47.59359,-54.27349
2023-11-29 14:54:00+00:00,109.0,0.82,139.0,1.28,12.09,47.59359,-54.27349
2023-11-29 15:04:00+00:00,136.0,1.8,138.0,2.72,12.09,47.59359,-54.27349
2023-11-29 15:14:00+00:00,169.0,1.72,227.0,2.93,12.09,47.59359,-54.27349
2023-11-29 15:24:00+00:00,195.0,4.11,205.0,4.94,12.09,47.59359,-54.27349
2023-11-29 15:34:00+00:00,181.0,1.69,188.0,2.14,12.09,47.59359,-54.27349
2023-11-29 15:44:00+00:00,98.0,1.27,97.0,2.85,12.09,47.59359,-54.27349
2023-11-29 15:54:00+00:00,74.0,2.22,3.0,6.33,12.09,47.59359,-54.27349
2023-11-29 16:04:00+00:00,315.0,0.01,39.0,0.0,12.09,47.59359,-54.27349
2023-11-29 16:14:00+00:00,355.0,2.07,357.0,2.64,12.09,47.59359,-54.27349
2023-11-29 16:24:00+00:00,7.0,3.49,328.0,7.0,12.09,47.59359,-54.27349
2023-11-29 16:34:00+00:00,13.0,3.6,31.0,9.41,12.09,47.59359,-54.27349
2023-11-29 16:44:00+00:00,315.0,0.01,326.0,0.0,12.09,47.59359,-54.27349
2023-11-29 16:54:00+00:00,5.0,4.89,18.0,7.28,12.09,47.59359,-54.27349
2023-11-29 17:04:00+00:00,10.0,5.61,12.0,6.11,12.09,47.59359,-54.27349
2023-11-29 17:14:00+00:00,2.0,5.56,2.0,13.07,12.09,47.59359,-54.27349
2023-11-29 17:24:00+00:00,0.0,5.11,278.0,28.08,12.09,47.59359,-54.27349
2023-11-29 17:34:00+00:00,343.0,4.92,340.0,5.42,12.09,47.59359,-54.27349
2023-11-29 17:44:00+00:00,335.0,6.38,341.0,8.29,12.09,47.59359,-54.27349
2023-11-29 17:54:00+00:00,315.0,0.01,330.0,0.0,12.09,47.59359,-54.27349
2023-11-29 18:04:00+00:00,327.0,6.9,314.0,8.13,12.09,47.59359,-54.27349
2023-11-29 18:14:00+00:00,332.0,8.65,338.0,10.29,12.09,47.59359,-54.27349
2023-11-29 18:24:00+00:00,328.0,12.61,324.0,14.84,12.09,47.59359,-54.27349
2023-11-29 18:34:00+00:00,323.0,11.76,326.0,13.9,12.09,47.59359,-54.27349
2023-11-29 18:44:00+00:00,325.0,11.18,325.0,14.7,12.09,47.59359,-54.27349
2023-11-29 18:54:00+00:00,324.0,14.25,328.0,18.21,12.09,47.59359,-54.27349
2023-11-29 19:04:00+00:00,315.0,8.98,316.0,11.42,12.09,47.59359,-54.27349
2023-11-29 19:14:00+00:00,301.0,11.6,302.0,13.58,12.01,47.59359,-54.27349
2023-11-29 19:24:00+00:00,315.0,0.01,301.0,0.0,12.01,47.59359,-54.27349
2023-11-29 19:34:00+00:00,315.0,0.01,301.0,0.0,12.01,47.59359,-54.27349
2023-11-29 19:44:00+00:00,321.0,8.48,318.0,9.81,12.01,47.59359,-54.27349
2023-11-29 19:54:00+00:00,298.0,11.47,296.0,14.3,12.01,47.59359,-54.27349
2023-11-29 20:04:00+00:00,309.0,8.04,296.0,10.85,12.01,47.59359,-54.27349
2023-11-29 20:14:00+00:00,296.0,10.65,290.0,12.56,12.01,47.59359,-54.27349
2023-11-29 20:24:00+00:00,298.0,11.09,291.0,13.24,12.01,47.59359,-54.27349
2023-11-29 20:34:00+00:00,303.0,8.29,298.0,11.53,12.01,47.59359,-54.27349
2023-11-29 20:44:00+00:00,306.0,8.36,303.0,10.34,12.01,47.59359,-54.27349
2023-11-29 20:54:00+00:00,302.0,9.38,303.0,11.1,12.01,47.59359,-54.27349
2023-11-29 21:04:00+00:00,298.0,9.72,294.0,11.85,12.01,47.59359,-54.27349
2023-11-29 21:14:00+00:00,301.0,9.28,300.0,10.87,12.01,47.59359,-54.27349
2023-11-29 21:24:00+00:00,289.0,8.58,284.0,10.6,12.01,47.59359,-54.27349
2023-11-29 21:34:00+00:00,289.0,8.42,288.0,10.66,12.01,47.59359,-54.27349
2023-11-29 21:44:00+00:00,284.0,7.86,284.0,9.33,12.01,47.59359,-54.27349
2023-11-29 21:54:00+00:00,278.0,7.48,281.0,10.09,12.01,47.59359,-54.27349
2023-11-29 22:04:00+00:00,275.0,8.01,276.0,10.19,12.01,47.59359,-54.27349
2023-11-29 22:14:00+00:00,272.0,9.46,273.0,10.59,12.01,47.59359,-54.27349
2023-11-29 22:24:00+00:00,277.0,8.56,279.0,10.16,12.01,47.59359,-54.27349
2023-11-29 22:34:00+00:00,270.0,8.39,272.0,10.81,12.01,47.59359,-54.27349
2023-11-29 22:44:00+00:00,281.0,8.79,271.0,9.9,12.01,47.59359,-54.27349
2023-11-29 22:54:00+00:00,263.0,7.72,263.0,9.93,12.01,47.59359,-54.27349
2023-11-29 23:04:00+00:00,268.0,8.48,267.0,10.54,12.01,47.59359,-54.27349
2023-11-29 23:14:00+00:00,267.0,9.1,259.0,10.83,12.01,47.59359,-54.27349
2023-11-29 23:24:00+00:00,270.0,8.72,274.0,10.47,12.01,47.59359,-54.27349
2023-11-29 23:34:00+00:00,251.0,7.84,252.0,10.23,12.01,47.59359,-54.27349
2023-11-29 23:44:00+00:00,254.0,8.62,261.0,10.07,12.01,47.59359,-54.27349
2023-11-29 23:54:00+00:00,258.0,9.22,254.0,10.84,12.01,47.59359,-54.27349
